Voltar ao catálogo

WEILI KONGJIAN 05-02

AtivoNavegaçãoLEO
NORAD 69583·PAYLOAD·🇨🇳 China
Este nome de satélite ainda não foi confirmado por fontes oficiais.

Lançado Jun 17, 2026 de Jiuquan Satellite Launch Center

Loading…

Próximas Passagens (próximas 24 horas)

TLE

AtualizadoSource: Space-Track

Época: Sep 14, 2026, 12:43 UTC

1 69583U 26138B   26257.53034844  .00000057  00000-0  12131-3 0  9997
2 69583  55.1416 311.7997 0006709 303.2948  56.7380 14.08169671 12660

Acompanhe WEILI KONGJIAN 05-02 em tempo real com AllMySat

Download on the App Store